Location: Bullenkuhlen
(53.7689°N, 9.7495°E)
Time: 01:27:53
(UTC+00:00)

Resurs 1-3 - Pass Details

Date: 09 April 2020
Orbit: 630 x 632 km, 97.9° (Epoch: 30 May)

Event Time Altitude Azimuth Distance (km) Brightness Sun altitude
Exits shadow 18:41:32 - 143° (SE) 2,773 6.4 -5.0°
Reaches altitude 10° 18:43:27 10° 137° (SE) 2,014 5.6 -5.2°
Maximum altitude 18:47:35 43° 67° (ENE) 900 4.1 -5.8°
Drops below altitude 10° 18:51:45 10° 356° (N) 2,029 6.6 -6.4°
Sets 18:54:02 0° 350° (N) 2,942 7.5 -6.7°
